sat.trackr.live / text

‹ back to catalog

STARLINK-37361

NORAD 69134 · 2026-110L

PAYLOAD ACTIVE UNKNOWN

§ Identity

Operator
Country
US
Launch date
2026-05-20
Launch site
AFWTR
Launch vehicle
Mass (kg)
RCS (m²)

Purposes: comms

External: N2YO · Heavens-Above · Gunter

§ Orbital elements

Epoch: 2026-09-19T18:27:49.766400Z

Period
93.91 min
Inclination
97.2861°
Eccentricity
0.0001828
Mean motion
15.33453878 rev/d
Perigee alt
464.3 km
Apogee alt
466.8 km
Semi-major
6,843.7 km
B*
4.7469e-4
RAAN
97.8303°
Arg perigee
90.5859°
Mean anomaly
269.5593°
Rev number
2,010

§ Raw data

STARLINK-373611 69134U 26110L   26262.76932600  .00015285  00000+0  47469-3 0  99972 69134  97.2861  97.8303 0001828  90.5859 269.5593 15.33453878 20102

JSON: /api/v1/satellites/69134 · /tle

For live sub-satellite position, see the globe view (requires WebGL).

§ Visibility from observer

Set your observer location to see the next 7 days of passes ≥ 10°. The values pass through the URL so the page stays shareable.

No JS? Fill the form by hand. The geolocation button needs JavaScript.